Back to catalog

STARLINK-37392

AliveCommunicationsVLEO
NORAD 69171·PAYLOAD·🇺🇸 United States

Launched May 21, 2026 from Cape Canaveral Space Force Station

Loading…

Next Passes (next 24 hours)

TLE

FreshSource: CelesTrak SupGP

Epoch: Sep 15, 2026, 03:37 UTC

1 69171C 26111Z   26258.15118056 -.00026864  00000+0 -79390-3 0  2581
2 69171  53.1564  90.4441 0001195  89.8486 191.5258 15.34396513    13

Track STARLINK-37392 in real time with AllMySat

Download on the App Store